Probability
61 65 61 61 58 58 58 52 45 32 42 42 32 29 42 52 23 42 52 16 3 0 0 0 0 0 0 0 0 3 3 6 6 6 6 10 13 16
71 68 65 55 52 58 61 65 58 52 39 32 39 32 42 23 13 45 48 16 6 0 0 0 0 0 0 0 0 0 0 0 0 0 0 3 3 6
65 58 61 58 55 55 52 58 61 52 48 39 32 39 39 48 42 45 42 39 23 3 0 0 0 0 0 0 0 0 0 0 0 0 0 0 0 0
61 58 58 58 61 58 65 55 58 68 58 48 42 32 55 45 45 45 26 16 23 6 3 0 0 0 0 0 0 0 0 0 0 0 0 0 0 0
61 61 58 61 65 61 68 58 52 42 58 52 42 48 39 39 35 29 19 32 6 6 3 3 0 0 0 0 0 0 0 0 0 0 0 0 0 0
65 61 55 55 65 65 58 61 55 48 52 48 39 39 39 32 32 16 13 19 23 6 6 3 3 0 0 0 0 0 0 0 0 0 0 0 0 0
58 65 61 45 45 48 48 48 52 45 42 42 39 35 29 39 29 23 16 19 26 16 13 13 13 16 6 0 0 0 0 0 0 0 0 0 0 0
52 58 48 42 35 6 6 6 23 48 45 45 42 42 52 35 39 32 23 23 19 19 19 13 10 10 16 16 3 0 0 0 0 0 0 0 0 0
52 42 32 32 32 52 13 3 3 6 6 48 32 32 35 42 39 32 42 39 35 16 23 19 16 19 19 3 0 0 0 0 0 0 0 0 0 0
32 35 35 35 32 45 35 29 32 32 13 23 35 35 39 39 32 35 45 45 45 39 26 19 26 23 10 13 0 0 0 0 0 0 0 0 0 0
23 26 29 35 13 6 16 23 26 26 3 3 6 6 10 3 13 19 26 29 23 23 23 19 16 23 23 10 0 0 0 0 0 0 0 0 0 0
23 16 16 16 13 0 19 19 16 29 26 13 3 0 0 0 0 10 29 26 26 23 26 23 19 19 16 13 13 6 0 0 0 0 0 0 0 0
23 19 16 3 0 0 3 19 16 13 16 23 29 23 29 23 23 23 26 26 23 23 23 26 19 19 16 10 10 16 6 3 3 0 0 0 0 0
19 16 16 3 0 0 0 3 0 0 13 16 16 13 19 16 16 29 29 32 35 32 26 23 16 19 10 10 10 10 6 6 6 6 0 0 0 0
16 13 6 0 0 0 0 0 0 3 13 10 13 13 16 23 26 26 26 26 26 26 16 19 19 13 16 13 13 10 6 3 3 3 0 0 0 0
3 3 0 0 0 0 0 0 0 6 10 10 10 16 13 23 26 19 19 23 19 23 23 19 23 19 16 16 13 10 10 6 3 0 0 0 0 0
6 6 10 13 6 6 10 6 6 3 3 6 10 13 10 10 19 23 19 19 19 19 19 19 19 19 19 13 10 6 6 6 3 3 3 0 0 0
0 6 6 13 10 10 13 6 3 3 6 10 13 13 10 10 13 23 16 23 23 19 19 16 16 13 10 10 3 6 6 10 6 6 3 0 0 0
0 3 3 10 10 3 3 3 3 3 6 6 10 10 10 6 10 16 10 6 6 13 13 19 16 13 6 6 3 0 3 10 10 6 3 0 0 0
0 0 0 6 6 3 3 3 3 3 3 10 10 6 3 3 3 6 6 6 6 6 6 13 10 10 6 6 3 3 0 3 13 10 3 3 3 0
0 0 6 3 0 0 3 0 0 3 3 3 6 10 3 3 3 3 3 3 3 6 6 6 6 3 10 6 6 3 3 0 3 10 10 3 3 3
0 0 3 3 0 0 3 0 0 0 3 3 3 3 3 3 3 6 3 3 6 6 6 6 10 10 6 3 3 3 3 3 0 0 0 0 0 0
0 3 3 3 0 0 0 0 0 0 0 3 3 3 3 3 6 3 3 3 3 6 6 6 10 6 3 3 3 3 0 3 3 0 0 0 0 0
Height
5883 5883 5882 5881 5880 5879 5878 5878 5877 5876 5875 5874 5873 5872 5871 5870 5870 5869 5868 5867 5866 5866 5865 5864 5863 5862 5861 5860 5859 5858 5857 5856 5855 5854 5854 5853 5853 5852
5879 5879 5878 5877 5876 5875 5874 5873 5872 5872 5871 5870 5868 5867 5866 5866 5865 5864 5863 5862 5861 5861 5860 5859 5858 5858 5857 5855 5854 5853 5852 5851 5850 5849 5849 5848 5848 5847
5875 5874 5873 5872 5871 5870 5870 5869 5868 5867 5866 5865 5864 5863 5862 5861 5860 5859 5858 5857 5856 5855 5855 5854 5853 5852 5851 5850 5849 5848 5847 5846 5845 5844 5844 5843 5843 5842
5870 5869 5868 5867 5866 5865 5865 5864 5863 5862 5861 5860 5859 5857 5856 5855 5854 5854 5852 5852 5851 5850 5849 5848 5847 5846 5845 5844 5843 5842 5841 5840 5839 5839 5838 5838 5837 5837
5864 5863 5862 5861 5861 5860 5859 5858 5857 5856 5855 5854 5853 5852 5851 5849 5848 5848 5846 5845 5844 5843 5843 5842 5841 5840 5839 5838 5837 5836 5835 5834 5833 5832 5832 5831 5831 5830
5858 5857 5856 5855 5854 5853 5852 5851 5850 5849 5848 5847 5846 5845 5844 5843 5842 5841 5840 5839 5838 5837 5836 5835 5834 5833 5832 5831 5830 5829 5828 5827 5827 5826 5825 5825 5824 5824
5851 5850 5849 5848 5847 5846 5845 5844 5843 5842 5840 5839 5839 5838 5837 5836 5836 5834 5833 5832 5831 5830 5829 5828 5827 5826 5825 5824 5823 5822 5821 5821 5820 5819 5819 5818 5818 5817
5843 5842 5841 5840 5839 5838 5837 5836 5835 5834 5833 5832 5831 5830 5830 5829 5828 5827 5826 5825 5824 5823 5821 5820 5819 5818 5817 5816 5815 5815 5814 5813 5812 5811 5811 5811 5810 5810
5834 5833 5832 5831 5830 5829 5828 5827 5826 5825 5825 5824 5823 5822 5821 5821 5820 5819 5818 5817 5816 5815 5813 5812 5811 5810 5809 5808 5807 5806 5805 5805 5804 5803 5803 5802 5802 5802
5824 5823 5822 5821 5820 5819 5818 5817 5816 5816 5815 5815 5814 5813 5813 5811 5810 5809 5808 5807 5807 5806 5805 5804 5803 5801 5800 5799 5798 5797 5796 5796 5795 5795 5794 5794 5794 5793
5814 5813 5812 5811 5811 5810 5808 5807 5807 5806 5805 5804 5804 5803 5802 5801 5800 5799 5799 5798 5797 5796 5796 5795 5794 5792 5791 5790 5789 5788 5787 5786 5786 5786 5785 5785 5785 5785
5803 5802 5801 5800 5800 5799 5798 5797 5797 5796 5795 5794 5793 5793 5792 5791 5789 5789 5788 5787 5787 5787 5786 5785 5784 5783 5782 5781 5780 5779 5778 5777 5776 5776 5776 5776 5776 5775
5791 5790 5789 5788 5788 5788 5787 5786 5786 5785 5784 5783 5782 5781 5780 5780 5779 5778 5777 5777 5777 5777 5776 5775 5774 5773 5773 5772 5771 5770 5769 5768 5767 5767 5766 5766 5766 5766
5780 5778 5777 5777 5776 5776 5775 5775 5774 5773 5773 5772 5771 5770 5769 5768 5768 5767 5766 5766 5765 5765 5765 5764 5764 5763 5763 5762 5761 5760 5759 5758 5757 5756 5756 5756 5756 5756
5769 5767 5766 5765 5764 5764 5764 5763 5762 5762 5761 5761 5760 5759 5758 5757 5756 5756 5755 5754 5754 5754 5754 5753 5753 5752 5752 5752 5751 5750 5749 5748 5747 5747 5746 5746 5745 5745
5758 5757 5756 5755 5754 5753 5752 5751 5751 5750 5750 5749 5748 5748 5747 5746 5745 5744 5744 5743 5743 5743 5743 5742 5742 5742 5741 5741 5740 5739 5738 5737 5737 5736 5736 5735 5735 5735
5747 5746 5745 5744 5744 5743 5742 5741 5740 5739 5739 5738 5737 5736 5736 5735 5734 5733 5733 5732 5732 5732 5732 5731 5730 5730 5729 5729 5728 5728 5727 5726 5726 5725 5725 5724 5724 5724
5736 5735 5734 5734 5733 5732 5731 5730 5729 5728 5727 5727 5726 5725 5724 5724 5723 5722 5722 5721 5721 5721 5721 5720 5719 5718 5718 5718 5718 5716 5716 5715 5714 5714 5714 5714 5714 5714
5725 5724 5723 5723 5722 5721 5720 5719 5718 5717 5716 5715 5714 5713 5713 5712 5712 5711 5711 5710 5710 5710 5710 5709 5708 5707 5707 5707 5706 5705 5705 5704 5703 5703 5703 5703 5703 5703
5714 5713 5713 5712 5711 5710 5709 5708 5706 5705 5704 5703 5703 5702 5702 5701 5701 5700 5700 5700 5699 5699 5699 5698 5698 5697 5696 5696 5695 5695 5694 5693 5693 5692 5692 5692 5692 5692
5704 5703 5702 5701 5701 5699 5698 5697 5695 5694 5693 5692 5692 5691 5691 5690 5690 5689 5689 5689 5688 5688 5688 5687 5687 5686 5685 5685 5684 5684 5683 5683 5683 5682 5682 5682 5682 5682
5693 5693 5692 5691 5690 5688 5687 5686 5685 5684 5683 5682 5681 5681 5680 5679 5679 5679 5678 5678 5678 5677 5677 5677 5676 5675 5674 5674 5674 5673 5673 5672 5672 5671 5671 5672 5672 5672
5683 5682 5681 5680 5679 5677 5676 5675 5674 5674 5673 5672 5671 5670 5670 5669 5668 5668 5668 5667 5667 5667 5666 5666 5665 5665 5664 5664 5664 5664 5663 5663 5662 5662 5662 5661 5662 5663
Wind_Speed
13 13 14 14 15 15 16 16 16 16 16 17 17 17 17 18 18 18 18 18 18 17 17 17 17 17 17 17 17 16 17 17 16 16 16 16 16 16
15 15 16 16 17 17 17 17 17 17 17 18 18 18 18 19 20 19 19 19 19 19 19 19 19 19 19 18 18 17 17 17 17 17 17 16 16 17
16 17 18 18 19 19 18 18 18 19 19 19 20 20 20 20 20 21 20 20 20 20 20 20 20 20 20 20 19 19 19 19 19 18 18 18 18 18
19 19 20 21 21 21 21 21 21 21 21 22 22 21 21 22 22 22 22 23 22 21 21 21 21 21 21 21 21 21 20 20 20 20 20 20 20 19
22 22 23 23 23 23 24 24 24 24 24 24 24 23 24 24 24 24 24 23 23 23 23 22 22 22 22 22 22 22 21 22 21 21 21 21 20 20
24 24 25 25 26 26 26 26 27 27 27 26 26 25 25 25 25 24 24 24 24 23 24 24 24 23 23 23 23 23 22 22 23 22 22 22 22 22
27 27 27 27 28 28 28 28 28 28 28 27 27 27 26 26 26 26 25 26 26 26 26 26 26 25 25 25 24 24 24 24 25 25 24 24 24 24
29 30 30 29 29 29 29 28 28 29 29 29 29 29 28 29 29 28 28 28 28 28 28 27 26 26 26 27 27 27 27 27 26 26 26 25 26 26
32 32 32 31 31 31 31 31 31 31 30 31 31 30 31 31 31 31 31 31 30 30 30 29 28 28 28 28 29 29 29 29 28 28 28 27 27 27
33 33 33 32 32 33 33 33 33 33 32 32 32 33 33 33 33 33 33 33 33 32 31 31 31 31 31 30 29 30 30 30 29 29 29 29 29 28
35 35 34 33 33 34 34 34 34 34 34 34 34 33 34 35 36 36 35 35 34 33 33 33 33 33 32 31 31 31 30 30 30 30 29 29 29 29
36 36 36 35 35 35 36 36 35 35 36 36 36 35 36 36 36 37 37 36 36 35 34 34 34 34 34 33 33 32 32 31 31 31 31 31 31 31
37 37 37 37 37 37 37 36 37 37 37 37 38 38 37 37 37 37 38 38 37 37 36 36 35 35 35 34 34 33 32 32 33 32 32 32 32 33
37 37 37 37 38 38 38 38 38 38 38 38 38 38 38 37 37 37 38 38 39 38 37 36 37 37 36 36 35 35 34 34 34 34 33 33 33 33
37 37 37 37 37 37 37 38 38 38 38 38 38 37 37 36 37 37 37 37 38 38 38 38 38 38 37 37 37 36 35 35 35 34 34 34 34 34
36 36 36 35 36 36 36 36 36 37 37 37 37 37 36 36 36 36 35 35 36 37 37 37 38 38 38 37 37 37 37 36 36 35 35 34 35 35
36 36 35 35 35 35 36 35 35 36 36 36 37 37 37 36 36 35 35 35 35 35 36 37 37 37 37 37 37 37 37 36 36 35 35 35 35 34
37 36 36 36 35 35 36 35 34 34 35 35 36 36 36 36 35 35 35 36 35 35 36 37 38 38 37 37 37 37 37 37 36 35 34 34 34 34
36 36 36 36 35 35 35 34 34 34 35 35 34 34 34 34 34 34 34 35 35 36 36 36 37 37 37 36 36 37 36 35 35 34 34 34 33 33
35 36 35 35 34 34 34 34 33 34 35 34 33 33 33 34 34 34 33 33 34 35 36 36 36 36 36 36 36 36 35 34 34 33 32 32 33 33
35 34 33 33 34 34 35 34 33 33 33 33 32 31 31 32 32 33 33 32 33 34 34 34 34 35 35 35 35 33 33 34 33 33 33 33 32 32
33 32 32 33 33 33 33 33 32 32 32 32 31 31 31 31 31 31 31 31 31 32 33 33 33 33 34 34 34 33 32 32 32 33 32 32 31 31
32 32 33 32 32 31 31 31 31 31 31 31 31 31 31 31 31 31 31 31 31 31 31 30 31 31 31 32 31 31 30 30 30 31 31 32 31 30
Wind_Direction
288 287 288 288 289 289 287 283 283 283 284 282 282 279 277 277 278 280 282 282 281 281 282 283 284 283 282 283 282 281 283 285 283 281 278 278 278 277
283 286 287 287 286 287 288 285 283 283 283 283 283 282 278 277 277 279 281 281 281 280 280 280 282 282 282 282 281 280 280 281 281 281 277 276 277 278
282 285 287 286 287 286 285 284 281 282 282 282 282 282 282 281 279 279 281 282 281 279 279 279 280 282 282 282 281 281 280 279 280 280 278 278 279 278
281 283 284 285 286 285 283 282 281 281 282 281 280 280 280 282 282 280 280 280 282 280 279 279 280 282 281 281 281 281 280 278 278 278 276 276 277 276
279 280 281 281 282 282 282 281 280 280 281 281 280 279 279 280 279 279 279 281 280 280 278 278 279 281 281 280 281 282 281 278 277 278 276 275 275 275
280 281 281 279 278 279 279 280 280 280 280 280 279 279 279 280 279 277 277 278 279 280 280 278 279 280 280 280 281 281 280 278 277 277 277 276 275 276
279 281 280 279 277 276 278 279 279 279 278 278 278 277 277 278 279 278 277 277 276 278 279 279 279 280 281 280 280 281 280 279 278 277 276 275 275 275
276 277 278 277 277 277 278 278 277 277 277 278 277 277 278 278 277 277 277 277 275 276 277 278 280 280 280 280 279 279 280 280 279 277 276 275 274 274
275 275 274 275 276 276 276 277 277 276 276 276 277 278 278 278 277 276 275 276 276 276 276 276 277 278 279 280 278 279 279 278 277 276 275 274 274 273
274 273 273 273 274 275 276 277 277 276 275 276 276 277 276 276 277 276 273 273 274 275 276 276 276 277 277 278 279 279 278 277 276 276 276 274 272 271
273 272 271 271 273 273 274 276 276 275 275 276 276 277 278 277 275 274 273 273 273 273 274 275 276 277 278 279 279 280 280 277 274 274 275 275 273 271
273 273 272 272 273 274 274 274 274 274 275 275 275 275 276 276 276 273 272 272 272 273 273 273 273 274 275 277 278 279 280 278 276 275 273 273 273 271
273 273 273 273 272 273 274 273 273 274 274 274 275 275 275 274 274 274 272 272 272 272 272 273 273 274 274 276 277 278 278 277 276 274 273 273 273 272
276 274 273 273 273 273 274 273 273 273 273 274 274 275 275 274 273 274 273 271 270 270 271 272 273 274 274 275 276 277 277 276 276 274 272 273 272 273
276 274 272 272 272 275 275 274 273 272 272 273 273 274 274 273 272 272 273 272 270 270 270 270 272 273 273 274 276 276 276 276 276 275 273 273 274 274
278 277 275 275 275 277 278 276 273 273 273 273 273 273 272 272 273 272 272 272 271 270 271 273 273 273 273 274 275 276 277 277 277 276 274 273 274 275
278 278 277 276 276 277 278 276 274 272 271 271 273 274 274 274 273 273 272 272 271 271 272 273 274 274 274 275 276 276 276 275 275 275 274 273 272 274
276 276 276 276 276 276 277 275 274 273 272 272 273 274 274 274 273 273 273 272 272 272 273 273 274 274 275 275 276 276 275 274 274 274 273 273 273 274
276 277 276 276 276 276 277 275 273 273 272 272 273 273 273 273 273 273 273 272 272 272 273 274 274 274 275 276 276 276 275 273 273 274 273 272 273 272
277 277 277 276 276 276 276 276 275 274 273 272 272 272 273 272 272 272 272 273 272 272 273 273 273 273 274 274 274 274 273 274 274 274 272 271 271 272
276 277 276 276 277 276 277 277 276 275 274 273 271 272 273 273 272 272 272 272 272 272 273 273 273 273 273 273 274 273 274 275 274 273 272 271 271 271
275 275 275 277 277 277 276 275 275 276 276 276 274 273 273 274 274 273 272 272 272 273 274 274 273 273 272 273 274 274 274 274 274 273 271 271 271 270
275 276 276 277 277 275 274 274 274 276 275 274 275 275 274 274 274 274 273 273 273 273 274 274 274 273 273 274 275 275 274 274 274 274 274 273 271 269